Other Public Products
Issued by NWS Charleston, SC

Current Version | Previous Version | Graphics & Text | Print | Product List | Glossary On
Versions: 1 2 3 4 5 6 7 8 9 10 11 12 13 14 15 16 17 18 19 20 21 22 23 24 25 26 27 28 29 30 31 32 33 34 35 36 37 38 39 40 41 42 43 44 45 46 47 48 49 50
000
FPUS82 KCHS 220812
OPUCHS

TEST...KCHS/KSAV Gateway Observations...TEST
National Weather Service Charleston SC
400 AM EDT SAT JUL 22 2017

NOTE: "fair" indicates few or no clouds below 12,000 feet with no
significant weather and/or obstructions to visibility.

SCZ050-WAZ558-NCZ071-TXZ119-213-PAZ071-DCZ001-FLZ074-172-MI076-
NYZ176-178-MAZ016-IL014-TNZ027-NJZ106-GAZ044-MD014-220900-

...Gateway Observations for Charleston International...

CITY           SKY/WX    TMP DP  RH WIND       PRES   REMARKS
Chas Airport   CLEAR     76  74  93 SW3       29.99S
Seattle        MOCLDY    63  54  72 S5        30.16S
Charlotte      PTCLDY    78  70  76 CALM      29.98F
Dallas DFW     CLEAR     85  71  63 S8        29.92F HX  90
Dallas Love    PTCLDY    85  71  63 S12       29.94S HX  90
Philladelphia  CLOUDY    80  75  84 S3        29.86F
Wash National  CLOUDY    81  74  79 N9        29.87F
Baltimore      CLOUDY    78  75  90 CALM      29.86F
Miami          MOCLDY    78  74  87 CALM      30.05F
Detroit        CLOUDY    77  72  84 S7        29.88F
Newark         MOCLDY    81  69  67 N10       29.86S
Laguardia      MOCLDY    81  71  71 NW10      29.85S
J F K          MOCLDY    84  71  65 NW14      29.86F
Boston Logan   MOCLDY    75  58  55 W10       29.82F
Ft. Lauderdale PTCLDY    77  75  94 CALM      30.04F
Chicago O`Hare TSTM      72  69  90 SW5       29.81F
Chicago Midway CLOUDY    74  72  93 E6        29.81F THUNDER
Houston Bush   PTCLDY    79  75  87 SW5       29.95F
Houston Hobby  PTCLDY    81  75  82 S5        29.95S
Nashville      CLEAR     80  74  81 SE3       29.95F
Atlanta        CLEAR     75  71  87 SW5       29.99F

$$

GAZ044-118-TXZ119-213-NCZ071-DCZ001-MDZ014-506-PAZ021-071-NJZ106-
NYZ176-178-MAZ106-OHZ011-021-055-MIZ076-KYZ091-ILZ014-INZ047-
MNZ060-ONZ431-220900-

...Gateway Observations for Savannah International...

CITY           SKY/WX    TMP DP  RH WIND       PRES   REMARKS
Savannah Arpt  CLEAR    N/A N/A N/A W3        30.01F
Atlanta        CLEAR     75  71  87 SW5       29.99F
Charlotte      PTCLDY    78  70  76 CALM      29.98F
Dallas DFW     CLEAR     85  71  63 S8        29.92F HX  90
Houston Bush   PTCLDY    79  75  87 SW5       29.95F
Wash National  CLOUDY    81  74  79 N9        29.87F
Wash Dulles    CLOUDY    79  69  71 NW8       29.89F
Baltimore      CLOUDY    78  75  90 CALM      29.86F
Philadelphia   CLOUDY    80  75  84 S3        29.86F
Newark         MOCLDY    81  69  67 N10       29.86S
Laguardia      MOCLDY    81  71  71 NW10      29.85S
J F K          MOCLDY    84  71  65 NW14      29.86F
Boston         MOCLDY    75  58  55 W10       29.82F
Pittsburg      CLOUDY    74  73  97 SW6       29.95S FOG
Akron          CLOUDY    76  71  85 SE7       29.93F
Cleveland      CLOUDY    77  68  73 SE7       29.92F
Cincinnati     MOCLDY    77  75  93 S7        29.91F
Columbus       CLOUDY    71  71 100 CALM      29.92S
Detroit        CLOUDY    77  72  84 S7        29.88F
Chicago O`Hare TSTM      72  69  90 SW5       29.81F
Minneapolis    MOCLDY    72  65  78 S10       29.77F
Indianapolis   CLOUDY    78  76  93 SW6       29.89
Toronto Canada CLOUDY    70  59  68 W5        29.90R

$$




USA.gov is the U.S. government's official web portal to all federal, state and local government web resources and services.